Wind_Speed
25 25 26 24 23 21 23 21 22 28 30 31 33 33 25 23 26 28 34 33 29 30 32 32 34 41 46 42 41 38 38 43 52 55 59 62 52 37 29 33 40 42 41
27 27 26 27 28 26 24 27 30 32 29 24 28 24 24 25 26 28 30 28 26 29 30 33 38 40 40 40 37 35 39 43 48 61 66 59 38 28 25 25 29 35 38
31 29 28 32 34 32 33 33 37 31 28 29 28 25 24 26 26 27 26 24 25 28 30 33 38 40 38 36 32 36 41 44 47 63 67 40 28 28 31 30 28 31 29
30 28 28 29 28 26 30 32 33 35 31 28 28 28 28 27 25 25 23 22 25 27 32 38 37 37 37 35 33 37 41 42 52 62 48 37 31 27 31 28 29 26 28
28 27 27 26 25 27 26 26 28 31 31 28 28 30 27 24 22 21 20 21 24 31 34 32 34 35 34 31 33 36 40 42 53 57 47 38 33 31 35 32 24 26 25
26 22 23 24 25 28 27 25 25 26 29 29 30 28 24 23 21 19 19 20 26 32 29 30 33 35 33 29 30 31 34 43 48 58 46 44 34 30 29 26 23 24 23
21 20 18 19 18 19 25 24 26 28 30 33 30 28 24 24 20 18 18 23 27 30 31 34 34 33 30 28 29 30 34 36 43 57 48 37 37 32 32 23 19 18 16
20 17 14 12 12 15 23 24 27 31 34 31 28 27 25 23 19 19 19 25 26 27 29 31 34 31 29 29 30 30 33 36 44 56 44 35 36 24 15 11 15 15 15
23 17 11 10 14 21 26 30 31 30 29 29 28 26 24 22 20 20 21 24 25 25 26 31 29 28 28 28 29 29 30 35 41 50 41 27 27 16 11 7 9 7 4
23 14 10 12 16 19 22 26 29 31 29 30 28 25 22 19 19 18 21 24 27 24 25 30 27 26 27 28 27 28 30 33 41 50 41 25 20 17 9 5 5 0 3
16 11 9 19 24 24 26 34 29 28 27 26 26 22 20 19 18 20 24 24 25 24 25 28 25 25 25 26 26 27 29 30 31 42 44 27 19 15 12 10 5 2 2
18 15 20 19 28 33 36 34 28 27 26 25 22 21 21 20 19 22 24 25 19 19 22 24 23 23 24 24 24 25 25 25 25 29 42 32 29 17 10 12 7 5 4
19 19 22 28 31 31 42 32 25 26 27 20 19 22 22 20 21 24 24 19 19 19 23 22 21 22 22 23 23 22 23 22 22 22 27 41 32 36 28 18 9 1 3
20 24 22 24 26 34 37 26 26 24 22 20 21 21 21 22 24 24 20 18 18 22 23 21 20 21 22 22 22 22 22 23 22 19 20 24 34 31 33 26 19 13 13
14 15 20 24 30 31 27 24 22 24 21 20 21 21 24 22 22 18 17 18 19 21 22 18 18 20 21 20 20 20 19 18 18 17 18 18 16 19 26 31 25 25 8
21 19 20 42 41 31 28 25 25 25 23 23 23 20 20 20 17 16 16 17 18 21 19 16 16 18 17 16 16 16 16 16 15 16 16 18 19 18 18 18 18 23 32
31 38 42 28 28 27 23 24 28 24 22 24 22 18 19 16 15 15 14 16 21 18 16 15 16 17 17 16 15 14 14 14 14 14 15 17 18 19 19 19 20 20 22
37 29 29 26 23 21 22 25 24 26 22 21 20 16 16 15 14 13 15 20 19 17 14 14 15 15 15 14 14 13 13 13 12 12 13 14 14 16 18 18 18 19 19
27 21 17 17 19 21 22 19 16 17 17 16 17 14 15 14 13 15 17 18 18 16 14 14 14 14 12 12 12 12 11 10 10 10 10 11 12 13 14 16 17 17 16
17 15 15 15 15 13 12 11 13 14 16 14 13 14 14 13 12 15 17 14 14 14 14 14 14 13 11 11 10 10 10 9 8 8 9 10 10 11 12 12 12 12 12
13 12 10 9 7 7 9 10 11 12 13 11 12 13 13 14 15 15 13 15 14 13 14 14 13 12 10 10 9 9 9 7 6 6 6 7 8 9 10 12 12 12 12
9 9 8 7 8 10 10 12 12 11 11 9 11 11 13 16 15 12 14 16 15 12 13 13 12 11 10 10 9 9 7 7 6 6 6 7 7 8 10 11 11 11 11
8 9 10 11 11 10 11 11 12 12 11 9 11 12 15 19 15 14 15 12 13 12 12 11 11 10 10 10 9 8 7 7 7 7 7 8 9 10 11 11 11 12 12
10 10 11 11 10 9 9 10 10 9 10 11 11 12 13 16 12 12 9 11 11 10 9 8 8 9 9 8 8 7 7 7 8 8 8 9 10 10 11 11 12 11 11
11 11 12 10 10 10 11 12 12 13 14 13 10 14 13 11 10 7 9 10 9 7 6 7 7 7 7 7 7 7 7 7 7 8 8 9 10 10 10 10 10 10 10
10 11 12 12 11 10 13 13 12 13 13 14 13 9 8 6 6 8 9 8 7 6 7 7 7 7 6 6 6 6 6 7 8 9 9 10 10 10 10 10 10 10 10
Wind_Direction
247 253 256 258 256 258 261 268 281 286 285 280 293 295 294 292 294 297 298 297 300 303 307 313 321 321 320 317 316 314 312 313 312 313 313 320 308 298 274 274 274 273 267
245 246 256 257 252 255 263 270 271 290 272 298 289 288 292 300 301 297 294 290 299 306 310 317 319 319 321 317 317 314 310 312 313 314 316 318 305 294 302 294 280 278 278
244 249 256 262 266 265 265 266 269 279 280 284 288 292 293 306 305 294 287 295 305 308 312 315 316 316 321 318 317 315 316 318 319 323 320 318 307 301 300 285 288 278 270
236 242 248 257 268 268 264 262 263 271 277 284 285 291 295 306 302 289 288 301 303 308 313 316 319 322 322 320 319 319 322 324 332 330 327 323 312 300 306 296 289 275 268
235 242 254 266 279 288 283 274 267 269 275 281 284 290 297 300 294 287 296 301 307 311 313 317 320 325 320 319 322 326 327 328 339 338 331 316 311 302 300 298 284 280 262
236 252 267 275 283 287 290 288 282 276 277 284 285 288 297 297 293 292 297 304 311 309 309 315 319 324 323 323 325 329 327 335 338 340 335 325 324 318 310 286 281 277 264
242 257 258 262 264 271 281 286 280 277 279 282 282 293 297 297 292 295 303 308 311 309 311 317 318 323 322 323 329 331 332 334 339 346 334 331 331 322 314 276 261 272 259
240 236 233 245 268 281 274 274 273 275 279 278 285 292 296 294 292 296 302 311 313 313 316 321 322 323 326 327 331 333 336 340 346 347 337 331 329 331 324 300 278 268 267
229 230 239 276 286 280 281 281 280 275 275 281 289 292 289 287 294 297 308 313 319 317 317 323 324 326 329 327 329 335 339 344 346 353 344 334 339 332 317 319 297 282 231
228 231 263 295 303 294 292 289 282 276 278 286 290 289 281 287 297 305 309 314 318 311 313 326 327 328 329 329 331 339 341 349 350 360 356 352 349 352 9 12 3 165 316
233 249 286 323 318 317 314 311 279 273 281 287 288 282 281 291 298 305 311 314 314 307 314 323 324 327 331 330 336 341 345 347 356 1 7 6 351 353 15 6 17 105 293
232 251 292 311 309 308 299 290 276 276 283 285 283 282 287 292 298 308 314 313 312 310 320 329 328 330 333 334 342 347 345 343 350 357 19 22 36 31 8 5 348 226 291
247 271 292 305 294 300 296 280 276 278 280 276 285 287 285 290 299 309 309 304 306 318 328 331 330 331 335 340 344 347 346 346 350 355 9 28 38 46 43 49 23 24 281
285 291 285 293 300 289 280 272 276 271 263 270 284 281 277 290 300 307 302 304 308 326 329 330 332 332 337 342 344 346 346 351 357 1 6 29 36 34 47 56 40 23 37
284 302 315 319 303 287 272 272 260 267 265 266 278 280 278 283 296 294 296 303 318 328 327 325 333 335 337 336 340 344 346 348 355 7 14 21 16 28 42 40 38 43 52
291 301 295 289 276 264 265 260 252 269 263 271 273 272 271 290 288 292 293 302 315 322 322 325 333 332 335 338 342 344 347 352 0 9 18 24 27 34 41 45 43 49 59
299 292 288 268 266 267 262 253 261 255 266 267 272 269 282 278 281 287 295 303 318 319 326 328 333 332 338 341 348 350 353 1 4 16 25 31 32 37 39 43 51 51 54
281 270 266 266 263 261 262 262 262 261 258 270 266 274 271 268 274 281 294 310 318 320 328 328 330 332 338 342 347 351 355 2 10 18 33 39 39 37 36 41 43 47 53
272 273 276 271 263 258 256 260 265 269 268 260 265 261 253 256 266 280 298 311 312 320 329 329 329 333 338 339 345 349 352 2 13 20 29 33 36 38 35 33 34 36 38
281 279 268 256 252 249 246 254 257 263 271 260 248 242 249 256 267 280 297 316 320 320 324 326 329 332 335 338 343 349 350 359 13 18 17 24 27 29 31 34 35 33 33
256 249 246 240 235 231 237 255 262 257 247 234 237 245 249 259 263 280 305 310 319 322 320 324 330 331 335 338 345 348 350 356 4 11 14 22 22 20 20 18 20 23 25
239 231 223 232 240 245 253 265 253 236 228 241 250 251 255 259 262 283 290 304 308 316 319 323 329 329 336 341 344 342 348 352 354 4 9 10 12 11 10 9 9 11 12
229 229 236 244 252 262 264 254 233 224 232 235 251 262 267 259 258 279 293 298 307 318 319 322 323 331 338 341 343 342 349 356 357 0 0 0 358 358 358 359 360 0 1
241 245 251 258 261 264 251 234 224 223 234 239 252 266 284 255 268 271 282 298 309 313 316 326 340 345 349 350 348 352 356 355 355 355 358 357 353 352 353 354 354 355 357
247 252 257 258 265 251 237 234 219 223 235 238 247 272 255 247 255 283 297 302 303 309 320 330 335 340 349 354 356 356 357 359 357 355 353 352 352 351 349 349 350 352 353
259 260 260 257 245 232 239 233 224 227 235 251 254 245 231 247 263 283 290 293 304 309 312 315 323 334 341 346 348 350 352 351 355 358 358 356 354 352 351 350 349 348 349
Height
3196 3197 3197 3198 3198 3197 3196 3196 3197 3196 3195 3195 3192 3190 3187 3184 3180 3176 3173 3169 3166 3162 3159 3155 3150 3144 3139 3131 3125 3120 3114 3108 3095 3089 3084 3075 3060 3055 3053 3048 3043 3039 3040
3191 3192 3192 3191 3192 3192 3192 3190 3189 3190 3188 3187 3186 3185 3183 3179 3174 3169 3167 3164 3160 3157 3153 3149 3144 3137 3132 3124 3118 3113 3107 3101 3090 3073 3067 3058 3048 3043 3041 3038 3036 3032 3029
3185 3187 3186 3185 3184 3186 3186 3185 3184 3184 3183 3181 3180 3178 3175 3172 3167 3164 3162 3159 3156 3152 3147 3143 3137 3130 3124 3118 3112 3106 3099 3092 3083 3067 3050 3043 3037 3035 3031 3029 3026 3022 3020
3178 3180 3180 3179 3178 3178 3178 3178 3177 3176 3175 3175 3174 3171 3168 3164 3161 3159 3156 3154 3150 3146 3142 3136 3130 3123 3116 3110 3105 3099 3091 3082 3072 3057 3041 3033 3029 3024 3021 3017 3015 3014 3012
3173 3174 3175 3174 3173 3172 3172 3171 3170 3169 3169 3169 3166 3164 3161 3158 3155 3153 3150 3149 3145 3140 3136 3131 3124 3118 3111 3105 3098 3091 3082 3073 3061 3044 3033 3026 3022 3017 3012 3008 3005 3004 3002
3169 3169 3169 3168 3167 3167 3166 3166 3165 3165 3164 3162 3159 3156 3154 3152 3149 3146 3144 3142 3138 3133 3129 3124 3119 3113 3106 3100 3094 3087 3077 3065 3053 3038 3027 3017 3010 3006 3001 2997 2997 2995 2995
3164 3163 3163 3162 3162 3162 3161 3161 3158 3158 3156 3155 3152 3150 3147 3145 3143 3141 3139 3137 3132 3128 3123 3118 3112 3107 3101 3095 3089 3082 3073 3064 3052 3037 3023 3012 3003 2995 2988 2985 2989 2990 2989
3156 3157 3157 3157 3157 3156 3155 3154 3152 3151 3149 3147 3146 3143 3141 3139 3137 3136 3133 3130 3127 3122 3117 3111 3106 3101 3095 3089 3083 3077 3068 3059 3048 3035 3019 3008 2999 2991 2989 2986 2985 2985 2986
3150 3151 3152 3152 3150 3149 3149 3148 3148 3145 3142 3140 3140 3137 3135 3133 3131 3130 3127 3124 3121 3118 3113 3106 3101 3095 3089 3085 3079 3071 3064 3056 3048 3036 3017 3006 2998 2992 2988 2985 2984 2984 2985
3143 3145 3145 3145 3145 3143 3141 3141 3138 3139 3136 3134 3134 3132 3129 3126 3125 3125 3123 3119 3115 3113 3109 3101 3095 3091 3085 3080 3074 3066 3060 3052 3043 3031 3017 3004 2997 2992 2989 2986 2985 2985 2985
3138 3139 3140 3139 3138 3134 3130 3133 3132 3131 3130 3128 3128 3125 3123 3121 3121 3120 3118 3114 3111 3108 3105 3099 3093 3087 3082 3077 3070 3063 3056 3051 3044 3035 3020 3006 2999 2995 2991 2990 2988 2988 2987
3130 3131 3132 3131 3127 3131 3127 3121 3122 3124 3124 3122 3121 3121 3119 3119 3116 3116 3113 3110 3106 3103 3100 3094 3089 3084 3079 3073 3067 3061 3056 3051 3045 3038 3026 3012 3000 2997 2994 2992 2991 2989 2990
3126 3126 3123 3123 3123 3122 3122 3117 3114 3117 3119 3118 3118 3117 3116 3113 3113 3110 3107 3105 3102 3099 3095 3089 3085 3081 3076 3070 3065 3060 3056 3050 3045 3039 3031 3020 3010 3004 2999 2995 2992 2991 2991
3120 3119 3118 3116 3115 3115 3112 3110 3108 3110 3111 3112 3111 3111 3111 3110 3106 3104 3103 3100 3098 3094 3090 3085 3081 3078 3073 3067 3063 3059 3055 3049 3044 3039 3033 3026 3020 3012 3005 3000 2998 2989 2990
3111 3112 3112 3109 3114 3113 3104 3104 3103 3104 3106 3106 3106 3106 3106 3104 3102 3099 3098 3096 3094 3091 3087 3083 3078 3075 3070 3066 3062 3058 3055 3050 3045 3040 3035 3030 3026 3020 3014 3010 3005 3001 2997
3105 3103 3102 3108 3102 3100 3101 3099 3099 3098 3099 3100 3099 3099 3100 3100 3097 3095 3094 3093 3090 3088 3084 3080 3076 3073 3069 3066 3061 3058 3054 3050 3046 3041 3037 3032 3028 3025 3021 3018 3013 3009 3006
3097 3096 3094 3096 3096 3093 3092 3094 3092 3093 3092 3094 3093 3093 3094 3096 3093 3092 3091 3089 3087 3085 3081 3077 3074 3071 3066 3064 3061 3057 3054 3050 3047 3043 3039 3035 3032 3029 3025 3022 3018 3014 3011
3092 3089 3088 3086 3087 3086 3084 3087 3087 3088 3086 3087 3089 3089 3089 3089 3089 3088 3087 3085 3083 3081 3078 3075 3072 3069 3065 3062 3059 3057 3053 3050 3047 3044 3041 3039 3036 3033 3030 3027 3024 3022 3019
3084 3081 3078 3079 3079 3080 3080 3080 3081 3082 3081 3083 3083 3083 3084 3085 3085 3084 3083 3081 3080 3077 3075 3073 3070 3067 3063 3061 3058 3056 3054 3051 3048 3046 3044 3041 3039 3036 3034 3031 3028 3026 3024
3074 3074 3075 3075 3075 3075 3075 3076 3077 3078 3077 3079 3079 3079 3080 3081 3081 3081 3079 3079 3077 3075 3072 3070 3068 3065 3062 3060 3057 3055 3053 3051 3049 3047 3045 3043 3041 3039 3037 3035 3033 3031 3029
3071 3071 3072 3072 3071 3071 3072 3073 3074 3075 3076 3076 3077 3077 3077 3078 3079 3078 3077 3076 3075 3073 3070 3068 3065 3063 3061 3059 3056 3054 3052 3051 3049 3047 3046 3044 3042 3040 3038 3036 3035 3033 3032
3066 3066 3068 3068 3068 3069 3070 3070 3072 3072 3073 3074 3074 3074 3075 3076 3076 3076 3075 3074 3072 3070 3068 3066 3064 3062 3059 3057 3055 3054 3052 3050 3049 3047 3045 3044 3042 3040 3039 3037 3035 3033 3032
3062 3063 3064 3066 3066 3066 3066 3067 3067 3069 3069 3070 3071 3072 3072 3072 3073 3073 3073 3071 3070 3068 3066 3064 3062 3060 3057 3055 3054 3053 3051 3050 3048 3047 3045 3043 3041 3040 3038 3037 3035 3033 3031
3060 3060 3061 3062 3062 3062 3063 3064 3064 3066 3067 3067 3068 3069 3069 3069 3070 3070 3070 3069 3067 3066 3064 3063 3060 3058 3056 3055 3053 3052 3050 3049 3047 3046 3045 3043 3041 3040 3038 3036 3034 3033 3031
3056 3057 3057 3057 3058 3059 3059 3060 3061 3063 3064 3065 3065 3066 3066 3067 3067 3068 3068 3067 3065 3064 3063 3061 3059 3058 3056 3055 3053 3051 3050 3048 3047 3046 3045 3043 3041 3039 3037 3036 3034 3032 3031
3052 3053 3053 3053 3055 3056 3055 3056 3057 3059 3061 3062 3063 3062 3064 3065 3066 3066 3065 3064 3062 3062 3061 3060 3058 3057 3055 3054 3053 3051 3050 3048 3047 3045 3044 3042 3040 3039 3037 3035 3034 3032 3030